Cloud_Cover
0 0 0 0 5 5 50 73 96 97 69 12 0 3 38 63 29 99 70 100 89 86 91 100 100 98 33 5 19 60 36 21 27 5 5 3 4 3 1 0 3 12 84 5 3 4 5 24 5
0 0 0 1 4 5 14 65 9 69 9 63 47 41 43 95 60 98 72 88 100 100 59 59 82 39 96 25 95 15 97 60 14 16 5 5 4 2 3 5 5 5 4 3 1 5 5 29 3
0 0 0 0 0 3 5 46 88 19 0 0 25 87 99 51 12 12 80 58 94 100 72 5 12 5 5 20 14 96 41 98 100 98 100 92 91 82 69 52 76 27 5 0 4 5 71 33 2
0 2 0 5 4 20 0 3 0 12 5 4 36 75 83 99 77 1 22 2 1 12 39 51 5 5 8 13 25 29 45 100 100 99 12 11 23 16 54 100 58 1 0 0 2 26 57 8 0
0 4 2 5 5 26 5 5 2 91 85 4 4 82 58 56 64 10 97 100 14 13 3 5 57 59 16 99 29 36 49 86 99 76 100 100 100 100 100 100 38 4 4 2 5 18 14 2 0
0 0 9 14 5 42 79 33 69 29 35 0 0 100 82 100 63 59 96 50 100 100 70 17 3 0 0 51 46 84 76 100 100 93 100 100 78 14 4 0 0 0 0 1 5 5 2 0 0
0 1 15 54 98 15 48 61 9 98 5 0 0 40 100 100 100 63 71 4 13 22 59 93 76 28 17 13 5 4 7 63 78 20 16 5 25 18 26 7 1 0 0 4 40 0 0 0 0
0 0 0 2 83 97 74 5 5 17 0 0 0 0 20 100 100 100 76 65 17 34 46 100 88 93 100 100 31 8 91 100 98 61 20 50 8 5 37 85 28 17 5 0 5 0 0 0 0
0 0 0 9 46 100 100 5 2 4 2 4 29 0 0 74 100 100 100 100 100 100 100 62 82 100 100 100 100 100 6 7 41 11 10 5 5 5 5 74 17 36 49 5 0 0 0 0 0
0 0 4 15 56 99 15 1 5 26 5 5 3 4 0 0 13 100 100 100 100 100 100 100 98 100 17 100 91 38 76 59 28 47 93 93 88 100 63 100 80 13 12 0 0 0 0 0 0
0 0 0 2 5 2 0 5 5 7 7 29 1 0 0 4 100 95 100 100 100 100 100 97 76 89 31 21 58 41 45 5 5 5 8 93 69 58 27 85 30 42 97 7 0 0 0 22 37
0 4 0 5 3 0 2 5 16 69 33 5 1 0 0 0 29 96 82 59 96 63 74 98 100 96 28 36 13 53 9 28 37 6 29 89 100 100 64 5 5 5 26 79 5 0 0 71 5
4 4 0 2 5 0 1 74 54 14 2 1 0 0 0 1 87 68 100 100 42 48 5 5 77 61 79 100 100 81 65 76 94 78 100 96 33 20 81 100 3 11 28 93 59 78 26 13 5
1 5 0 24 11 1 0 2 5 0 0 0 72 100 9 5 87 90 58 100 100 95 18 5 5 5 32 7 26 25 56 82 98 100 47 11 52 11 70 100 84 69 75 100 100 16 100 100 90
5 4 3 86 4 0 0 81 0 0 0 0 88 97 100 73 100 96 98 43 54 100 84 8 5 5 1 6 3 4 5 89 99 66 13 61 76 48 100 98 100 100 98 100 89 38 100 100 100
5 3 58 100 5 1 3 1 0 1 5 2 65 100 100 96 100 100 100 100 96 100 100 29 11 86 47 2 0 5 2 0 0 42 100 82 100 100 100 94 100 100 100 100 100 99 85 100 100
6 15 69 70 19 14 4 13 3 69 42 0 4 28 100 100 100 100 100 100 100 100 100 100 100 92 93 89 33 3 14 4 0 15 81 95 98 100 96 99 100 100 100 100 100 100 100 100 100
76 41 80 52 40 42 53 75 1 53 6 1 0 0 100 100 100 100 70 97 94 100 100 100 98 98 98 100 95 54 6 2 4 73 100 99 86 100 95 96 100 100 100 100 100 100 100 100 100
100 36 100 100 88 58 100 20 5 60 4 0 0 0 82 100 100 100 100 100 99 82 6 7 89 95 75 100 88 13 24 67 86 5 5 5 47 10 86 47 98 100 100 100 100 100 100 100 100
100 100 100 100 100 100 100 9 0 0 0 0 4 0 0 60 100 100 100 100 100 46 92 79 69 86 3 18 97 100 100 100 100 100 90 64 17 5 5 90 100 80 5 5 72 74 100 100 95
11 79 100 100 100 100 100 1 0 0 3 0 5 0 0 0 100 100 100 100 31 64 7 17 11 6 15 14 100 66 100 100 100 100 100 100 96 99 100 88 99 27 15 15 8 13 20 42 70
13 28 100 99 100 100 86 1 0 2 0 2 51 0 0 0 63 100 100 67 99 99 100 13 4 8 10 25 6 47 56 50 98 21 10 0 7 88 1 53 68 99 89 53 6 14 34 67 79
76 9 31 99 100 99 31 63 5 0 0 3 5 0 0 0 0 0 64 99 100 98 10 58 11 16 31 15 3 21 26 17 0 2 8 4 0 3 42 78 38 0 0 0 1 3 15 29 62
79 29 5 84 100 100 94 100 82 2 0 3 2 0 0 0 0 0 4 7 31 34 11 4 35 51 31 6 22 36 1 2 26 26 25 26 20 12 0 49 0 3 5 5 5 5 18 19 75
17 33 74 100 92 99 99 100 98 5 7 3 0 0 1 0 11 29 87 69 16 20 11 24 29 100 38 23 15 8 0 0 2 12 30 31 32 30 12 0 0 0 0 2 0 1 3 4 5
74 95 76 100 71 100 99 83 26 60 17 5 3 0 0 0 2 26 20 23 11 7 20 33 52 46 48 28 18 16 0 26 19 6 24 28 35 14 3 4 3 4 2 1 46 1 48 55 79
100 100 100 100 100 74 18 64 15 6 74 69 11 6 5 0 0 0 0 4 15 20 20 14 20 16 43 44 30 19 18 9 18 5 1 15 5 4 0 4 5 42 68 55 90 72 71 62 42
100 100 100 100 85 76 7 16 5 5 86 100 100 100 96 97 5 0 0 0 0 0 0 3 2 0 3 8 11 4 8 1 1 6 11 6 1 17 39 35 15 16 26 100 100 35 69 92 89
47 92 92 100 57 5 6 5 5 4 86 100 100 100 100 100 100 87 89 13 0 4 3 1 0 9 69 100 100 54 15 8 4 11 10 40 30 96 100 100 100 100 100 87 90 87 94 68 83
100 100 100 100 93 5 9 41 6 76 100 99 60 58 100 100 100 100 79 97 100 13 20 12 100 98 97 100 89 100 100 91 20 19 10 92 99 100 100 100 100 100 100 100 68 100 100 100 100